| time (UTC) | temp C | wind direction | speed KPH | gust KPH | rain 1hr cm | rain 24hr cm | rain mn cm | humidity % | barometer mb |
| 20260510175306 | 10 | 25 | 11.3 | 22.5 | 0.00 | 0.00 | 0.00 | 67 | 1016.2 |
| 20260510173804 | 10 | 25 | 9.7 | 27.4 | 0.00 | 0.00 | 0.00 | 69 | 1016.3 |
| 20260510173304 | 10 | 21 | 11.3 | 29.0 | 0.00 | 0.00 | 0.00 | 69 | 1016.4 |
| 20260510172804 | 10 | 22 | 14.5 | 35.4 | 0.00 | 0.00 | 0.00 | 67 | 1016.3 |
| 20260510171804 | 11 | 20 | 9.7 | 24.1 | 0.00 | 0.00 | 0.00 | 63 | 1016.4 |
| 20260510171304 | 11 | 39 | 8.0 | 20.9 | 0.00 | 0.00 | 0.00 | 63 | 1016.4 |
| 20260510170804 | 11 | 13 | 9.7 | 24.1 | 0.00 | 0.00 | 0.00 | 66 | 1016.5 |
| 20260510165306 | 11 | 51 | 9.7 | 27.4 | 0.00 | 0.00 | 0.00 | 65 | 1016.7 |
| 20260510164804 | 11 | 69 | 9.7 | 25.7 | 0.00 | 0.00 | 0.00 | 64 | 1016.8 |
| 20260510162804 | 12 | 36 | 16.1 | 27.4 | 0.00 | 0.00 | 0.00 | 64 | 1016.8 |
| 20260510161804 | 12 | 25 | 9.7 | 20.9 | 0.00 | 0.00 | 0.00 | 66 | 1016.9 |
| 20260510161304 | 12 | 66 | 9.7 | 22.5 | 0.00 | 0.00 | 0.00 | 66 | 1016.9 |
| 20260510155804 | 12 | 24 | 6.4 | 25.7 | 0.00 | 0.00 | 0.00 | 64 | 1017.0 |
| 20260510153304 | 13 | 64 | 9.7 | 33.8 | 0.00 | 0.00 | 0.00 | 65 | 1017.2 |
| 20260510152307 | 12 | 32 | 11.3 | 24.1 | 0.00 | 0.00 | 0.00 | 64 | 1017.4 |
| 20260510151804 | 12 | 33 | 12.9 | 35.4 | 0.00 | 0.00 | 0.00 | 63 | 1017.4 |
| 20260510151304 | 13 | 51 | 14.5 | 27.4 | 0.00 | 0.00 | 0.00 | 63 | 1017.4 |
| 20260510145804 | 12 | 36 | 19.3 | 37.0 | 0.00 | 0.00 | 0.00 | 63 | 1017.5 |
| 20260510145306 | 13 | 52 | 14.5 | 29.0 | 0.00 | 0.00 | 0.00 | 64 | 1017.5 |
| 20260510144804 | 12 | 18 | 12.9 | 22.5 | 0.00 | 0.00 | 0.00 | 67 | 1017.5 |
| 20260510144303 | 12 | 57 | 14.5 | 33.8 | 0.00 | 0.00 | 0.00 | 65 | 1017.6 |
| 20260510143804 | 13 | 30 | 16.1 | 33.8 | 0.00 | 0.00 | 0.00 | 65 | 1017.6 |
| 20260510143305 | 12 | 31 | 16.1 | 25.7 | 0.00 | 0.00 | 0.00 | 64 | 1017.6 |
| 20260510142306 | 13 | 49 | 9.7 | 33.8 | 0.00 | 0.00 | 0.00 | 64 | 1017.7 |
| 20260510140804 | 14 | 44 | 8.0 | 27.4 | 0.00 | 0.00 | 0.00 | 60 | 1017.7 |
| 20260510135806 | 13 | 23 | 9.7 | 24.1 | 0.00 | 0.00 | 0.00 | 64 | 1017.9 |
| 20260510135306 | 13 | 40 | 16.1 | 32.2 | 0.00 | 0.00 | 0.00 | 61 | 1017.8 |
| 20260510134304 | 12 | 30 | 14.5 | 27.4 | 0.00 | 0.00 | 0.00 | 64 | 1018.0 |
| 20260510133304 | 13 | 29 | 9.7 | 24.1 | 0.00 | 0.00 | 0.00 | 65 | 1017.9 |
| 20260510131804 | 13 | 62 | 16.1 | 33.8 | 0.00 | 0.00 | 0.00 | 64 | 1018.1 |
| 20260510131303 | 13 | 65 | 19.3 | 40.2 | 0.00 | 0.00 | 0.00 | 67 | 1018.1 |
| 20260510125803 | 12 | 46 | 14.5 | 32.2 | 0.00 | 0.00 | 0.00 | 67 | 1018.2 |
| 20260510125306 | 13 | 59 | 11.3 | 32.2 | 0.00 | 0.00 | 0.00 | 67 | 1018.2 |
| 20260510124804 | 13 | 43 | 9.7 | 35.4 | 0.00 | 0.00 | 0.00 | 69 | 1018.2 |
| 20260510124303 | 12 | 35 | 14.5 | 29.0 | 0.00 | 0.00 | 0.00 | 68 | 1018.4 |
| 20260510123804 | 12 | 34 | 11.3 | 29.0 | 0.00 | 0.00 | 0.00 | 68 | 1018.5 |
| 20260510121804 | 12 | 41 | 14.5 | 32.2 | 0.00 | 0.00 | 0.00 | 70 | 1018.7 |
| 20260510120804 | 12 | 31 | 16.1 | 29.0 | 0.00 | 0.00 | 0.00 | 71 | 1018.8 |
| 20260510120303 | 12 | 26 | 16.1 | 35.4 | 0.00 | 0.00 | 0.00 | 68 | 1018.8 |
| 20260510115306 | 12 | 56 | 14.5 | 25.7 | 0.00 | 0.00 | 0.00 | 70 | 1018.8 |
| 20260510113805 | 12 | 37 | 16.1 | 25.7 | 0.00 | 0.00 | 0.00 | 73 | 1018.9 |
| 20260510112305 | 11 | 31 | 11.3 | 24.1 | 0.00 | 0.00 | 0.00 | 75 | 1019.1 |
| 20260510111806 | 11 | 14 | 11.3 | 27.4 | 0.00 | 0.00 | 0.00 | 76 | 1019.1 |
| 20260510110805 | 12 | 19 | 11.3 | 27.4 | 0.00 | 0.00 | 0.00 | 77 | 1019.2 |
| 20260510104307 | 11 | 50 | 16.1 | 29.0 | 0.00 | 0.00 | 0.00 | 79 | 1019.5 |
| 20260510101305 | 12 | 43 | 12.9 | 27.4 | 0.00 | 0.00 | 0.00 | 75 | 1019.5 |
| 20260510100805 | 11 | 14 | 14.5 | 27.4 | 0.00 | 0.00 | 0.00 | 78 | 1019.5 |
| 20260510095805 | 11 | 24 | 11.3 | 25.7 | 0.00 | 0.00 | 0.00 | 80 | 1019.4 |
| 20260510095306 | 11 | 4 | 12.9 | 24.1 | 0.00 | 0.00 | 0.00 | 80 | 1019.5 |
| 20260510094306 | 12 | 36 | 9.7 | 29.0 | 0.00 | 0.00 | 0.00 | 79 | 1019.5 |
| 20260510093805 | 11 | 31 | 9.7 | 24.1 | 0.00 | 0.00 | 0.00 | 78 | 1019.5 |
| 20260510092805 | 12 | 31 | 9.7 | 24.1 | 0.00 | 0.00 | 0.00 | 80 | 1019.4 |
| 20260510092307 | 11 | 42 | 11.3 | 27.4 | 0.00 | 0.00 | 0.00 | 80 | 1019.7 |
| 20260510091806 | 11 | 43 | 11.3 | 25.7 | 0.00 | 0.00 | 0.00 | 80 | 1019.7 |
| 20260510090805 | 11 | 24 | 12.9 | 27.4 | 0.00 | 0.00 | 0.00 | 79 | 1019.7 |
| 20260510090305 | 11 | 33 | 11.3 | 27.4 | 0.00 | 0.00 | 0.00 | 83 | 1019.8 |
| 20260510084805 | 11 | 20 | 12.9 | 24.1 | 0.00 | 0.00 | 0.00 | 81 | 1020.0 |
| 20260510083305 | 11 | 21 | 14.5 | 33.8 | 0.00 | 0.00 | 0.00 | 84 | 1020.0 |
| 20260510082805 | 10 | 46 | 11.3 | 27.4 | 0.00 | 0.00 | 0.00 | 87 | 1020.1 |
| 20260510082307 | 10 | 32 | 9.7 | 22.5 | 0.00 | 0.00 | 0.00 | 88 | 1020.1 |
| 20260510081306 | 10 | 40 | 9.7 | 24.1 | 0.00 | 0.00 | 0.00 | 89 | 1020.1 |
| 20260510080805 | 10 | 35 | 11.3 | 22.5 | 0.00 | 0.00 | 0.00 | 89 | 1020.1 |
| 20260510075306 | 10 | 29 | 9.7 | 25.7 | 0.00 | 0.00 | 0.00 | 90 | 1020.0 |
| 20260510074305 | 10 | 26 | 9.7 | 25.7 | 0.00 | 0.00 | 0.00 | 90 | 1020.0 |
| 20260510073805 | 10 | 23 | 12.9 | 35.4 | 0.00 | 0.00 | 0.00 | 90 | 1020.0 |
| 20260510073305 | 10 | 43 | 8.0 | 22.5 | 0.00 | 0.00 | 0.00 | 90 | 1019.8 |
| 20260510072805 | 10 | 20 | 9.7 | 25.7 | 0.00 | 0.00 | 0.00 | 90 | 1019.8 |
| 20260510072306 | 10 | 15 | 11.3 | 24.1 | 0.00 | 0.00 | 0.00 | 90 | 1019.8 |
| 20260510071305 | 10 | 38 | 8.0 | 16.1 | 0.00 | 0.00 | 0.00 | 90 | 1019.7 |
| 20260510070305 | 10 | 41 | 9.7 | 19.3 | 0.00 | 0.00 | 0.00 | 91 | 1019.6 |
| 20260510064805 | 10 | 39 | 11.3 | 27.4 | 0.00 | 0.00 | 0.00 | 91 | 1019.5 |
| 20260510064305 | 10 | 22 | 8.0 | 14.5 | 0.00 | 0.00 | 0.00 | 92 | 1019.5 |
| 20260510063805 | 10 | 28 | 8.0 | 16.1 | 0.00 | 0.00 | 0.00 | 92 | 1019.4 |
| 20260510062805 | 10 | 27 | 11.3 | 22.5 | 0.00 | 0.00 | 0.00 | 92 | 1019.4 |
| 20260510054805 | 10 | 17 | 8.0 | 16.1 | 0.00 | 0.00 | 0.00 | 95 | 1019.0 |
| 20260510054305 | 9 | 23 | 8.0 | 24.1 | 0.00 | 0.00 | 0.00 | 95 | 1018.9 |
| 20260510053805 | 9 | 25 | 8.0 | 19.3 | 0.00 | 0.00 | 0.00 | 96 | 1019.0 |
| 20260510052805 | 9 | 31 | 8.0 | 14.5 | 0.00 | 0.00 | 0.00 | 96 | 1019.1 |
| 20260510052306 | 9 | 14 | 6.4 | 14.5 | 0.00 | 0.00 | 0.00 | 97 | 1019.1 |
| 20260510051804 | 9 | 12 | 4.8 | 14.5 | 0.00 | 0.00 | 0.00 | 97 | 1019.1 |
| 20260510051304 | 8 | 31 | 4.8 | 9.7 | 0.00 | 0.00 | 0.00 | 97 | 1019.1 |
| 20260510050305 | 8 | 27 | 3.2 | 9.7 | 0.00 | 0.00 | 0.00 | 96 | 1019.2 |
| 20260510045805 | 8 | 29 | 4.8 | 9.7 | 0.00 | 0.00 | 0.00 | 96 | 1019.2 |
| 20260510044805 | 8 | 9 | 3.2 | 8.0 | 0.00 | 0.00 | 0.00 | 96 | 1019.3 |
| 20260510044305 | 8 | 11 | 3.2 | 4.8 | 0.00 | 0.00 | 0.00 | 96 | 1019.4 |
| 20260510043805 | 8 | 352 | 3.2 | 8.0 | 0.00 | 0.00 | 0.00 | 96 | 1019.3 |
| 20260510043305 | 8 | 24 | 3.2 | 8.0 | 0.00 | 0.00 | 0.00 | 96 | 1019.3 |
| 20260510042805 | 7 | 26 | 1.6 | 4.8 | 0.00 | 0.00 | 0.00 | 96 | 1019.3 |
| 20260510041304 | 7 | 45 | 3.2 | 8.0 | 0.00 | 0.00 | 0.00 | 96 | 1019.4 |
| 20260510040305 | 7 | 15 | 3.2 | 4.8 | 0.00 | 0.00 | 0.00 | 96 | 1019.3 |
| 20260510035805 | 7 | 2 | 3.2 | 8.0 | 0.00 | 0.00 | 0.00 | 96 | 1019.3 |
| 20260510034805 | 7 | 29 | 3.2 | 4.8 | 0.00 | 0.00 | 0.00 | 96 | 1019.2 |
| 20260510034305 | 7 | 34 | 3.2 | 9.7 | 0.00 | 0.00 | 0.00 | 96 | 1019.3 |
| 20260510033805 | 7 | 38 | 3.2 | 9.7 | 0.00 | 0.00 | 0.00 | 96 | 1019.3 |
| 20260510033305 | 8 | 47 | 4.8 | 11.3 | 0.00 | 0.00 | 0.00 | 96 | 1019.3 |
| 20260510032805 | 8 | 38 | 4.8 | 14.5 | 0.00 | 0.00 | 0.00 | 96 | 1019.3 |
| 20260510032306 | 8 | 41 | 3.2 | 9.7 | 0.00 | 0.00 | 0.00 | 96 | 1019.3 |
| 20260510031304 | 8 | 45 | 4.8 | 9.7 | 0.00 | 0.00 | 0.00 | 96 | 1019.4 |
| 20260510030806 | 8 | 40 | 3.2 | 8.0 | 0.00 | 0.00 | 0.00 | 96 | 1019.6 |
| 20260510025804 | 8 | 40 | 4.8 | 9.7 | 0.00 | 0.00 | 0.00 | 96 | 1019.5 |
| 20260510024805 | 8 | 60 | 3.2 | 9.7 | 0.00 | 0.00 | 0.00 | 96 | 1019.6 |
| 20260510023804 | 8 | 28 | 3.2 | 8.0 | 0.00 | 0.00 | 0.00 | 95 | 1019.7 |
| 20260510023305 | 8 | 32 | 3.2 | 9.7 | 0.00 | 0.00 | 0.00 | 95 | 1019.7 |
| 20260510021305 | 8 | 23 | 3.2 | 8.0 | 0.00 | 0.00 | 0.00 | 95 | 1019.7 |
| 20260510020304 | 8 | 23 | 3.2 | 9.7 | 0.00 | 0.00 | 0.00 | 95 | 1019.7 |
| 20260510015807 | 8 | 43 | 3.2 | 9.7 | 0.00 | 0.00 | 0.00 | 95 | 1019.8 |
| 20260510015306 | 8 | 17 | 3.2 | 8.0 | 0.00 | 0.00 | 0.00 | 95 | 1019.8 |
| 20260510014305 | 8 | 43 | 3.2 | 4.8 | 0.00 | 0.00 | 0.00 | 95 | 1019.9 |
| 20260510013805 | 8 | 40 | 3.2 | 9.7 | 0.00 | 0.00 | 0.00 | 95 | 1019.9 |
| 20260510012307 | 8 | 34 | 4.8 | 11.3 | 0.00 | 0.00 | 0.00 | 95 | 1019.8 |
| 20260510011304 | 8 | 9 | 4.8 | 11.3 | 0.00 | 0.00 | 0.00 | 94 | 1019.8 |
| 20260510010805 | 8 | 10 | 3.2 | 9.7 | 0.00 | 0.00 | 0.00 | 94 | 1019.8 |
| 20260510010305 | 8 | 16 | 4.8 | 16.1 | 0.00 | 0.00 | 0.00 | 94 | 1019.7 |
| 20260510005804 | 8 | 29 | 4.8 | 9.7 | 0.00 | 0.00 | 0.00 | 94 | 1019.8 |
| 20260510004805 | 8 | 29 | 4.8 | 9.7 | 0.00 | 0.00 | 0.00 | 94 | 1019.8 |
| 20260510004305 | 9 | 12 | 3.2 | 8.0 | 0.00 | 0.00 | 0.00 | 94 | 1019.9 |
| 20260510003804 | 9 | 9 | 4.8 | 16.1 | 0.00 | 0.00 | 0.00 | 94 | 1019.8 |
| 20260510003304 | 9 | 21 | 4.8 | 19.3 | 0.00 | 0.00 | 0.00 | 94 | 1019.9 |
| 20260510002805 | 9 | 19 | 4.8 | 9.7 | 0.00 | 0.00 | 0.00 | 94 | 1019.9 |
| 20260510001805 | 9 | 19 | 4.8 | 12.9 | 0.00 | 0.00 | 0.00 | 94 | 1019.8 |
| 20260510000805 | 9 | 53 | 6.4 | 14.5 | 0.00 | 0.00 | 0.00 | 93 | 1019.9 |
| 20260509235307 | 10 | 49 | 4.8 | 19.3 | 0.00 | 0.00 | 0.00 | 93 | 1020.0 |
| 20260509234805 | 10 | 27 | 8.0 | 11.3 | 0.00 | 0.00 | 0.00 | 93 | 1020.1 |
| 20260509234305 | 10 | 35 | 4.8 | 12.9 | 0.00 | 0.00 | 0.00 | 93 | 1020.2 |
| 20260509233805 | 10 | 41 | 6.4 | 12.9 | 0.00 | 0.00 | 0.00 | 93 | 1020.2 |
| 20260509233306 | 10 | 33 | 4.8 | 11.3 | 0.00 | 0.00 | 0.00 | 93 | 1020.2 |
| 20260509231804 | 10 | 34 | 4.8 | 11.3 | 0.00 | 0.00 | 0.00 | 93 | 1020.2 |
| 20260509225806 | 10 | 35 | 6.4 | 12.9 | 0.00 | 0.00 | 0.00 | 93 | 1020.1 |
| 20260509215806 | 10 | 45 | 6.4 | 16.1 | 0.00 | 0.00 | 0.00 | 90 | 1019.7 |
| 20260509214805 | 10 | 55 | 8.0 | 16.1 | 0.00 | 0.00 | 0.00 | 89 | 1019.7 |
| 20260509213811 | 10 | 43 | 4.8 | 12.9 | 0.00 | 0.00 | 0.00 | 87 | 1019.6 |
| 20260509212806 | 10 | 39 | 4.8 | 14.5 | 0.00 | 0.00 | 0.00 | 85 | 1019.7 |
| 20260509204804 | 11 | 41 | 4.8 | 19.3 | 0.00 | 0.00 | 0.00 | 75 | 1019.5 |
| 20260509203807 | 11 | 23 | 3.2 | 11.3 | 0.00 | 0.00 | 0.00 | 74 | 1019.4 |
| 20260509202816 | 11 | 42 | 6.4 | 19.3 | 0.00 | 0.00 | 0.00 | 71 | 1019.4 |
| 20260509202315 | 12 | 44 | 4.8 | 11.3 | 0.00 | 0.00 | 0.00 | 70 | 1019.5 |
| 20260509195804 | 12 | 47 | 1.6 | 8.0 | 0.00 | 0.00 | 0.00 | 65 | 1019.3 |
| 20260509194804 | 13 | 26 | 1.6 | 8.0 | 0.00 | 0.00 | 0.00 | 63 | 1019.2 |
| 20260509190804 | 14 | 51 | 4.8 | 12.9 | 0.00 | 0.00 | 0.00 | 60 | 1018.7 |
| 20260509190304 | 15 | 53 | 8.0 | 19.3 | 0.00 | 0.00 | 0.00 | 59 | 1018.7 |
| 20260509185306 | 15 | 47 | 8.0 | 19.3 | 0.00 | 0.00 | 0.00 | 57 | 1018.6 |
| 20260509184305 | 15 | 45 | 8.0 | 24.1 | 0.00 | 0.00 | 0.00 | 55 | 1018.6 |
| 20260509183806 | 16 | 47 | 4.8 | 19.3 | 0.00 | 0.00 | 0.00 | 54 | 1018.5 |
| 20260509183305 | 16 | 56 | 6.4 | 14.5 | 0.00 | 0.00 | 0.00 | 53 | 1018.4 |
| 20260509182804 | 16 | 42 | 9.7 | 19.3 | 0.00 | 0.00 | 0.00 | 52 | 1018.6 |
| 20260509182306 | 16 | 49 | 4.8 | 14.5 | 0.00 | 0.00 | 0.00 | 52 | 1018.6 |
| 20260509181304 | 16 | 63 | 4.8 | 19.3 | 0.00 | 0.00 | 0.00 | 50 | 1018.5 |
| 20260509180804 | 16 | 51 | 6.4 | 19.3 | 0.00 | 0.00 | 0.00 | 50 | 1018.6 |
| 20260509180304 | 17 | 74 | 9.7 | 20.9 | 0.00 | 0.00 | 0.00 | 48 | 1018.6 |